Weather History for KLUK - January, 2013

Change the Weather History Date:

Monday, January 14, 2013

  Actual Average Record
Temperature  
Mean Temperature 30 °F -  
Max Temperature 36 °F 38 °F - (-1)
Min Temperature 25 °F 21 °F - (-1)
Degree Days  
Heating Degree Days 34    
Moisture  
Dew Point 23 °F    
Average Humidity 78    
Maximum Humidity 87    
Minimum Humidity 69    
Precipitation  
Precipitation 0.00 in - - ()
Sea Level Pressure  
Sea Level Pressure 30.36 in    
Wind  
Wind Speed 8 mph (NNW)    
Max Wind Speed 13 mph    
Max Gust Speed 16 mph    
Visibility 10 miles    
Events      
Averages and records for this station are not official NWS values.
T = Trace of Precipitation, MM = Missing Value Source: NWS Daily Summary

Daily Weather History Graph

Daily Weather History Graph

Search for Another Location

Airport or City:

Trip Planner

Search our weather history database for the weather conditions in past years. The results will help you decide how hot, cold, wet, or windy it might be!

Date:

Astronomy

Jan. 14, 2013 Rise Set
Actual Time 7:55 AM EST 5:38 PM EST
Civil Twilight 7:26 AM EST 6:07 PM EST
Nautical Twilight 6:53 AM EST 6:40 PM EST
Astronomical Twilight 6:21 AM EST 7:12 PM EST
Moon 9:30 AM EST (1/14) 9:20 PM EST (1/14)
Length of Visible Light 10h 41m
Length of Day
9h 43m
Waxing Crescent, 11% of the Moon is Illuminated
Jan 14
Waxing Crescent
Jan 18
First Quarter
Jan 26
Full
Feb 3
Last Quarter
Feb 10
New

Hourly Weather History & Observations

Time (EST) Temp. Windchill Dew Point Humidity Pressure Visibility Wind Dir Wind Speed Gust Speed Precip Events Conditions
12:46 AM 35.6 °F 28.0 °F 32.0 °F 87% 30.18 in 10.0 mi WNW 10.4 mph - N/A   Overcast
12:53 AM 36.0 °F 29.6 °F 32.0 °F 86% 30.19 in 10.0 mi West 8.1 mph - N/A   Overcast
1:31 AM 33.8 °F 27.0 °F 28.4 °F 81% 30.21 in 10.0 mi WNW 8.1 mph 16.1 mph N/A   Overcast
1:53 AM 33.1 °F 23.9 °F 28.9 °F 85% 30.24 in 10.0 mi West 12.7 mph - N/A   Mostly Cloudy
2:53 AM 30.9 °F 25.2 °F 26.1 °F 82% 30.27 in 10.0 mi Variable 5.8 mph - N/A   Scattered Clouds
3:12 AM 30.2 °F 24.3 °F 24.8 °F 80% 30.28 in 10.0 mi WNW 5.8 mph - N/A   Mostly Cloudy
3:53 AM 28.4 °F 20.4 °F 24.8 °F 86% 30.28 in 10.0 mi NNW 8.1 mph - N/A   Mostly Cloudy
4:12 AM 28.4 °F 19.7 °F 21.2 °F 74% 30.30 in 10.0 mi NNW 9.2 mph - N/A   Scattered Clouds
4:53 AM 27.0 °F 18.0 °F 21.0 °F 78% 30.32 in 10.0 mi WNW 9.2 mph - N/A   Clear
5:18 AM 26.6 °F 19.1 °F 21.2 °F 80% 30.31 in 10.0 mi NNW 6.9 mph - N/A   Mostly Cloudy
5:53 AM 26.1 °F 19.4 °F 21.0 °F 81% 30.33 in 10.0 mi West 5.8 mph - N/A   Mostly Cloudy
6:53 AM 25.0 °F 16.3 °F 19.9 °F 81% 30.37 in 10.0 mi NW 8.1 mph - N/A   Mostly Cloudy
7:53 AM 26.1 °F 18.4 °F 19.9 °F 78% 30.41 in 10.0 mi NNE 6.9 mph - N/A   Overcast
8:53 AM 25.0 °F 14.8 °F 19.0 °F 78% 30.43 in 10.0 mi North 10.4 mph - N/A   Overcast
9:53 AM 26.1 °F 16.8 °F 19.9 °F 78% 30.45 in 10.0 mi NNE 9.2 mph - N/A   Overcast
10:53 AM 27.0 °F 18.0 °F 19.9 °F 75% 30.44 in 10.0 mi North 9.2 mph - N/A   Overcast
11:53 AM 28.9 °F 23.9 °F 21.9 °F 75% 30.36 in 10.0 mi ENE 4.6 mph - N/A   Mostly Cloudy
12:53 PM 30.9 °F 25.2 °F 21.9 °F 69% 30.38 in 10.0 mi NE 5.8 mph - N/A   Mostly Cloudy
1:53 PM 30.2 °F 23.4 °F 21.2 °F 69% 30.37 in 10.0 mi North 6.9 mph - N/A   Mostly Cloudy
2:53 PM 30.0 °F 22.4 °F 21.0 °F 69% 30.39 in 10.0 mi NNW 8.1 mph - N/A   Scattered Clouds
3:53 PM 28.9 °F 18.6 °F 21.0 °F 72% 30.43 in 10.0 mi NNW 12.7 mph - N/A   Mostly Cloudy
4:03 PM 28.4 °F 20.4 °F 21.2 °F 74% 30.42 in 10.0 mi NNW 8.1 mph - N/A   Scattered Clouds
4:53 PM 28.4 °F 21.2 °F 21.2 °F 74% 30.45 in 10.0 mi North 6.9 mph - N/A   Clear
5:53 PM 28.9 °F 21.9 °F 21.0 °F 72% 30.42 in 10.0 mi North 6.9 mph - N/A   Scattered Clouds
6:53 PM 28.9 °F 21.9 °F 21.0 °F 72% 30.43 in 10.0 mi North 6.9 mph - N/A   Partly Cloudy
7:53 PM 28.0 °F 20.0 °F 21.9 °F 78% 30.42 in 10.0 mi NNE 8.1 mph - N/A   Overcast
8:53 PM 27.0 °F 20.5 °F 21.0 °F 78% 30.41 in 10.0 mi NNE 5.8 mph - N/A   Clear
9:53 PM 26.1 °F 21.9 °F 21.0 °F 81% 30.39 in 10.0 mi NNE 3.5 mph - N/A   Clear
10:53 PM 26.1 °F 21.9 °F 19.9 °F 78% 30.38 in 9.0 mi NNE 3.5 mph - N/A   Partly Cloudy
11:06 PM 26.6 °F 21.2 °F 21.2 °F 80% 30.37 in 9.0 mi North 4.6 mph - N/A   Mostly Cloudy
11:53 PM 27.0 °F 19.5 °F 21.9 °F 81% 30.38 in 8.0 mi North 6.9 mph - N/A   Overcast